Location: ?????????
(38.0736°N, 23.2119°E)
Time: 11:56:52
(UTC+00:00)

Cosmos 1833 - Pass Details

Date: 18 April 2024
Orbit: 836 x 862 km, 70.9° (Epoch: 18 May)

Event Time Altitude Azimuth Distance (km) Brightness Sun altitude
Rises 17:35:45 0° 340° (NNW) 3,403 8.0 -6.4°
Reaches altitude 10° 17:38:14 10° 343° (NNW) 2,462 7.2 -6.8°
Maximum altitude 17:43:51 67° 66° (ENE) 907 4.2 -7.8°
Drops below altitude 10° 17:49:25 10° 149° (SSE) 2,439 6.1 -8.9°
Enters shadow 17:50:56 - 151° (SSE) 3,013 6.6 -9.1°
